EWG5AB EDDH-LDSP

Flight info

Callsign EWG5AB
Flight time 1h 36m
Altitude 39000
Route AMLUH2G AMLUH M852 DENIX DCT ZUCKA DCT AKOSI DCT SIMBA DCT NIPEL DCT SABAD DCT NUPSO
Aircraft A20N/M-SDE2E3FGHIRWXY/LB1

Departure

Time 2026-04-25 11:37
Airport Hamburg Helmut Schmidt Airport (EDDH)

Arrival

Time 2026-04-25 13:13
Airport Split Saint Jerome Airport (LDSP)
Time Latitude Longitude Altitude Speed Heading
2026-04-25 11:21 53.62839 10.00207 50 ft 0 kts 63°
2026-04-25 11:28 53.62838 10.00201 50 ft 2 kts 64°
2026-04-25 11:28 53.62830 10.00176 53 ft 2 kts 62°
2026-04-25 11:28 53.62822 10.00152 50 ft 2 kts 59°
2026-04-25 11:28 53.62813 10.00129 52 ft 2 kts 49°
2026-04-25 11:29 53.62800 10.00115 50 ft 2 kts 357°
2026-04-25 11:29 53.62790 10.00119 51 ft 1 kts 336°
2026-04-25 11:29 53.62791 10.00118 51 ft 0 kts 335°
2026-04-25 11:31 53.62797 10.00113 50 ft 2 kts 335°
2026-04-25 11:31 53.62815 10.00099 54 ft 4 kts 335°
2026-04-25 11:31 53.62843 10.00070 51 ft 5 kts 315°
2026-04-25 11:31 53.62854 10.00013 54 ft 6 kts 271°
2026-04-25 11:32 53.62844 9.99958 51 ft 0 kts 244°
2026-04-25 11:35 53.62833 9.99921 51 ft 11 kts 244°
2026-04-25 11:35 53.62822 9.99790 52 ft 13 kts 306°
2026-04-25 11:35 53.62846 9.99763 52 ft 0 kts 333°
2026-04-25 11:36 53.62894 9.99720 50 ft 36 kts 332°
2026-04-25 11:36 53.62996 9.99629 52 ft 65 kts 332°
2026-04-25 11:36 53.63600 9.99109 53 ft 138 kts 332°
2026-04-25 11:37 53.64505 9.98370 745 ft 142 kts 329°
2026-04-25 11:37 53.65402 9.97665 1777 ft 143 kts 328°
2026-04-25 11:37 53.66328 9.96932 2652 ft 156 kts 326°
2026-04-25 11:37 53.66995 9.96307 2972 ft 174 kts 325°
2026-04-25 11:38 53.67664 9.95662 3272 ft 191 kts 326°
2026-04-25 11:38 53.68957 9.94587 3812 ft 222 kts 339°
2026-04-25 11:38 53.70577 9.94331 4558 ft 243 kts 353°
2026-04-25 11:38 53.72281 9.94904 4925 ft 262 kts 18°
2026-04-25 11:39 53.73683 9.96995 5021 ft 281 kts 50°
2026-04-25 11:39 53.74424 10.00126 5109 ft 293 kts 69°
2026-04-25 11:39 53.74584 10.03626 5684 ft 310 kts 98°
2026-04-25 11:39 53.73753 10.07006 6851 ft 314 kts 121°
2026-04-25 11:40 53.72576 10.10078 7919 ft 317 kts 124°
2026-04-25 11:40 53.71358 10.13239 8963 ft 323 kts 123°
2026-04-25 11:40 53.70158 10.16506 9989 ft 330 kts 121°
2026-04-25 11:40 53.69373 10.18729 10511 ft 339 kts 120°
2026-04-25 11:41 53.68541 10.20850 10814 ft 354 kts 131°
2026-04-25 11:41 53.66590 10.23517 11279 ft 368 kts 157°
2026-04-25 11:41 53.64170 10.24750 12060 ft 367 kts 178°
2026-04-25 11:41 53.61634 10.25255 13007 ft 371 kts 180°
2026-04-25 11:42 53.59046 10.25890 13992 ft 378 kts 176°
2026-04-25 11:42 53.56436 10.26746 14850 ft 385 kts 174°
2026-04-25 11:42 53.53798 10.27764 15699 ft 390 kts 172°
2026-04-25 11:42 53.51182 10.28861 16618 ft 394 kts 171°
2026-04-25 11:43 53.48499 10.30031 17467 ft 400 kts 171°
2026-04-25 11:43 53.45792 10.31235 18303 ft 405 kts 170°
2026-04-25 11:43 53.43047 10.32475 19022 ft 411 kts 170°
2026-04-25 11:43 53.40265 10.33773 19771 ft 416 kts 169°
2026-04-25 11:44 53.37499 10.35074 20460 ft 420 kts 169°
2026-04-25 11:44 53.34659 10.36399 21187 ft 425 kts 169°
2026-04-25 11:44 53.31789 10.37719 21899 ft 429 kts 170°
2026-04-25 11:44 53.28889 10.39036 22598 ft 434 kts 170°
2026-04-25 11:45 53.26952 10.39909 23050 ft 436 kts 169°
2026-04-25 11:45 53.25115 10.40733 23500 ft 439 kts 169°
2026-04-25 11:45 53.22143 10.42061 24088 ft 443 kts 169°
2026-04-25 11:45 53.19143 10.43397 24642 ft 448 kts 169°
2026-04-25 11:46 53.16152 10.44727 25176 ft 452 kts 169°
2026-04-25 11:46 53.13101 10.46068 25691 ft 455 kts 171°
2026-04-25 11:46 53.09997 10.47235 26207 ft 457 kts 173°
2026-04-25 11:46 53.09093 10.47540 26356 ft 458 kts 174°
2026-04-25 11:47 53.05947 10.48530 26865 ft 462 kts 175°
2026-04-25 11:47 53.03846 10.49156 27200 ft 464 kts 175°
2026-04-25 11:47 53.00656 10.50091 27704 ft 468 kts 175°
2026-04-25 11:47 52.97432 10.51041 28194 ft 471 kts 175°
2026-04-25 11:48 52.94185 10.52011 28676 ft 475 kts 174°
2026-04-25 11:48 52.90922 10.53001 29144 ft 479 kts 174°
2026-04-25 11:48 52.88750 10.53665 29445 ft 481 kts 174°
2026-04-25 11:48 52.86682 10.54301 29724 ft 484 kts 174°
2026-04-25 11:49 52.83352 10.55327 30151 ft 487 kts 174°
2026-04-25 11:49 52.80047 10.56347 30567 ft 489 kts 174°
2026-04-25 11:49 52.76695 10.57381 31033 ft 489 kts 174°
2026-04-25 11:49 52.73347 10.58409 31507 ft 489 kts 174°
2026-04-25 11:50 52.69983 10.59437 31999 ft 489 kts 174°
2026-04-25 11:50 52.66637 10.60455 32540 ft 487 kts 174°
2026-04-25 11:50 52.63298 10.61468 33042 ft 487 kts 175°
2026-04-25 11:50 52.60001 10.62463 33483 ft 487 kts 175°
2026-04-25 11:51 52.56663 10.63468 33930 ft 487 kts 175°
2026-04-25 11:51 52.53329 10.64472 34311 ft 488 kts 175°
2026-04-25 11:51 52.49990 10.65477 34726 ft 485 kts 174°
2026-04-25 11:51 52.46680 10.66476 35269 ft 480 kts 174°
2026-04-25 11:52 52.43393 10.67465 35710 ft 478 kts 174°
2026-04-25 11:52 52.40159 10.68435 36100 ft 477 kts 174°
2026-04-25 11:52 52.36886 10.69413 36468 ft 477 kts 174°
2026-04-25 11:52 52.33627 10.70386 36827 ft 476 kts 174°
2026-04-25 11:53 52.30361 10.71361 37199 ft 475 kts 174°
2026-04-25 11:53 52.27111 10.72331 37537 ft 474 kts 174°
2026-04-25 11:53 52.23876 10.73297 37973 ft 471 kts 174°
2026-04-25 11:53 52.20650 10.74259 38387 ft 469 kts 174°
2026-04-25 11:54 52.17482 10.75200 38749 ft 468 kts 174°
2026-04-25 11:54 52.14272 10.76152 38997 ft 467 kts 174°
2026-04-25 11:55 52.04632 10.79007 39081 ft 469 kts 174°
2026-04-25 11:55 51.98209 10.80912 39076 ft 468 kts 174°
2026-04-25 11:56 51.91809 10.82807 39070 ft 467 kts 174°
2026-04-25 11:56 51.85441 10.84685 39069 ft 467 kts 174°
2026-04-25 11:57 51.79035 10.86569 39072 ft 467 kts 174°
2026-04-25 11:57 51.72683 10.88432 39074 ft 465 kts 173°
2026-04-25 11:58 51.66332 10.90545 39066 ft 467 kts 167°
2026-04-25 11:58 51.60183 10.94114 39067 ft 470 kts 161°
2026-04-25 11:59 51.54130 10.98157 39070 ft 471 kts 160°
2026-04-25 11:59 51.48103 11.02107 39067 ft 470 kts 161°
2026-04-25 12:00 51.38977 11.07868 39085 ft 470 kts 162°
2026-04-25 12:01 51.29832 11.13551 39074 ft 472 kts 162°
2026-04-25 12:01 51.23711 11.17350 39082 ft 471 kts 161°
2026-04-25 12:02 51.14397 11.23118 39091 ft 482 kts 161°
2026-04-25 12:02 51.08125 11.26997 39075 ft 483 kts 161°
2026-04-25 12:03 51.01890 11.30836 39052 ft 483 kts 161°
2026-04-25 12:03 50.95631 11.34676 39074 ft 480 kts 161°
2026-04-25 12:04 50.89394 11.38487 39078 ft 480 kts 161°
2026-04-25 12:04 50.83184 11.42269 39075 ft 480 kts 162°
2026-04-25 12:05 50.77083 11.45976 39066 ft 480 kts 162°
2026-04-25 12:05 50.70846 11.49757 39069 ft 478 kts 161°
2026-04-25 12:06 50.64674 11.53487 39071 ft 477 kts 161°
2026-04-25 12:06 50.58456 11.57232 39069 ft 477 kts 162°
2026-04-25 12:07 50.52282 11.60940 39068 ft 477 kts 162°
2026-04-25 12:07 50.46065 11.64665 39071 ft 477 kts 162°
2026-04-25 12:08 50.39843 11.68383 39075 ft 477 kts 162°
2026-04-25 12:08 50.33676 11.72057 39075 ft 477 kts 162°
2026-04-25 12:09 50.27459 11.75750 39059 ft 477 kts 162°
2026-04-25 12:09 50.21233 11.79439 39075 ft 477 kts 162°
2026-04-25 12:10 50.16012 11.82525 39071 ft 477 kts 162°
2026-04-25 12:10 50.09806 11.86183 39067 ft 476 kts 162°
2026-04-25 12:11 50.03592 11.89835 39044 ft 477 kts 162°
2026-04-25 12:11 49.97381 11.93475 39056 ft 477 kts 163°
2026-04-25 12:12 49.92207 11.96500 39064 ft 478 kts 163°
2026-04-25 12:12 49.84957 12.00726 39059 ft 478 kts 163°
2026-04-25 12:13 49.78721 12.04353 39043 ft 478 kts 163°
2026-04-25 12:13 49.72535 12.07940 39051 ft 477 kts 163°
2026-04-25 12:14 49.66355 12.11727 39055 ft 478 kts 161°
2026-04-25 12:14 49.60213 12.15737 39054 ft 478 kts 161°
2026-04-25 12:15 49.54066 12.19760 39050 ft 478 kts 161°
2026-04-25 12:15 49.47973 12.23707 39065 ft 477 kts 161°
2026-04-25 12:16 49.41834 12.27653 39069 ft 477 kts 161°
2026-04-25 12:16 49.35743 12.31551 39066 ft 477 kts 161°
2026-04-25 12:17 49.29609 12.35468 39055 ft 476 kts 161°
2026-04-25 12:17 49.23523 12.39348 39068 ft 474 kts 161°
2026-04-25 12:18 49.17424 12.43223 39075 ft 474 kts 161°
2026-04-25 12:18 49.12355 12.46435 39076 ft 474 kts 161°
2026-04-25 12:19 49.04400 12.51462 39073 ft 473 kts 161°
2026-04-25 12:20 48.98306 12.55304 39081 ft 472 kts 161°
2026-04-25 12:20 48.92230 12.59122 39082 ft 471 kts 161°
2026-04-25 12:21 48.86190 12.62907 39085 ft 471 kts 161°
2026-04-25 12:21 48.80123 12.66700 39078 ft 471 kts 162°
2026-04-25 12:22 48.74059 12.70482 39078 ft 469 kts 162°
2026-04-25 12:22 48.68042 12.74224 39082 ft 469 kts 162°
2026-04-25 12:23 48.61991 12.77976 39081 ft 469 kts 162°
2026-04-25 12:23 48.58092 12.80389 39063 ft 469 kts 162°
2026-04-25 12:24 48.52094 12.84095 39082 ft 468 kts 162°
2026-04-25 12:24 48.46052 12.87818 39079 ft 468 kts 162°
2026-04-25 12:25 48.40029 12.91518 39079 ft 467 kts 162°
2026-04-25 12:25 48.33993 12.95217 39065 ft 468 kts 162°
2026-04-25 12:26 48.27999 12.98882 39076 ft 467 kts 162°
2026-04-25 12:26 48.21965 13.02558 39077 ft 467 kts 162°
2026-04-25 12:27 48.15919 13.06214 39076 ft 468 kts 162°
2026-04-25 12:27 48.09914 13.09831 39076 ft 468 kts 162°
2026-04-25 12:28 48.03876 13.13459 39077 ft 468 kts 162°
2026-04-25 12:28 47.97812 13.17096 39071 ft 468 kts 162°
2026-04-25 12:29 47.91800 13.20692 39072 ft 468 kts 162°
2026-04-25 12:29 47.86857 13.23642 39062 ft 468 kts 162°
2026-04-25 12:30 47.80810 13.27243 39072 ft 468 kts 162°
2026-04-25 12:30 47.74765 13.30833 39075 ft 467 kts 162°
2026-04-25 12:31 47.68719 13.34415 39068 ft 467 kts 163°
2026-04-25 12:31 47.62708 13.37967 39067 ft 467 kts 162°
2026-04-25 12:32 47.56656 13.41536 39068 ft 467 kts 162°
2026-04-25 12:32 47.50745 13.45012 39067 ft 466 kts 162°
2026-04-25 12:33 47.44736 13.48536 39068 ft 467 kts 162°
2026-04-25 12:33 47.40682 13.50909 39066 ft 468 kts 162°
2026-04-25 12:34 47.34823 13.54334 39065 ft 466 kts 162°
2026-04-25 12:34 47.29757 13.57287 39061 ft 467 kts 162°
2026-04-25 12:35 47.23747 13.60782 39055 ft 467 kts 162°
2026-04-25 12:35 47.17698 13.64292 39051 ft 466 kts 162°
2026-04-25 12:36 47.11667 13.67784 39048 ft 465 kts 162°
2026-04-25 12:36 47.05639 13.71263 39043 ft 465 kts 162°
2026-04-25 12:37 46.99645 13.74714 39037 ft 465 kts 162°
2026-04-25 12:37 46.93608 13.78184 39030 ft 465 kts 163°
2026-04-25 12:38 46.87611 13.81623 39025 ft 464 kts 163°
2026-04-25 12:38 46.81583 13.85069 39020 ft 464 kts 163°
2026-04-25 12:39 46.76576 13.87924 39021 ft 464 kts 163°
2026-04-25 12:39 46.69574 13.91911 39020 ft 464 kts 163°
2026-04-25 12:40 46.63554 13.95329 39025 ft 464 kts 163°
2026-04-25 12:40 46.57521 13.98744 39024 ft 464 kts 163°
2026-04-25 12:41 46.51535 14.02126 39009 ft 464 kts 163°
2026-04-25 12:41 46.45651 14.06064 39025 ft 467 kts 155°
2026-04-25 12:42 46.39993 14.10799 39013 ft 469 kts 153°
2026-04-25 12:42 46.34410 14.15602 39009 ft 469 kts 154°
2026-04-25 12:43 46.28756 14.20360 38990 ft 469 kts 154°
2026-04-25 12:43 46.20289 14.27355 38998 ft 468 kts 154°
2026-04-25 12:44 46.14615 14.32014 39002 ft 468 kts 154°
2026-04-25 12:45 46.06101 14.38989 38993 ft 468 kts 154°
2026-04-25 12:45 45.97641 14.45901 38991 ft 467 kts 154°
2026-04-25 12:46 45.91979 14.50512 39002 ft 467 kts 154°
2026-04-25 12:46 45.86364 14.55074 39002 ft 467 kts 154°
2026-04-25 12:47 45.80703 14.59662 39005 ft 466 kts 154°
2026-04-25 12:47 45.75040 14.64242 39001 ft 466 kts 154°
2026-04-25 12:48 45.69416 14.68779 39011 ft 467 kts 154°
2026-04-25 12:48 45.63741 14.73347 39005 ft 467 kts 154°
2026-04-25 12:49 45.58069 14.77901 39018 ft 466 kts 154°
2026-04-25 12:49 45.54457 14.80798 39017 ft 465 kts 154°
2026-04-25 12:50 45.48807 14.85317 39026 ft 465 kts 154°
2026-04-25 12:50 45.43132 14.89756 39028 ft 465 kts 155°
2026-04-25 12:51 45.37414 14.94074 39024 ft 465 kts 155°
2026-04-25 12:51 45.31724 14.98346 39036 ft 465 kts 155°
2026-04-25 12:52 45.26007 15.02645 39025 ft 464 kts 155°
2026-04-25 12:52 45.23158 15.04787 38747 ft 461 kts 155°
2026-04-25 12:52 45.20315 15.06925 38216 ft 461 kts 155°
2026-04-25 12:53 45.17470 15.09062 37655 ft 463 kts 155°
2026-04-25 12:53 45.14652 15.11179 37102 ft 464 kts 155°
2026-04-25 12:53 45.11789 15.13331 36583 ft 465 kts 154°
2026-04-25 12:53 45.08929 15.15481 36069 ft 465 kts 154°
2026-04-25 12:54 45.06062 15.17634 35573 ft 466 kts 154°
2026-04-25 12:54 45.03192 15.19786 35068 ft 466 kts 155°
2026-04-25 12:54 45.00316 15.21940 34583 ft 467 kts 155°
2026-04-25 12:54 44.97478 15.24062 34119 ft 468 kts 155°
2026-04-25 12:55 44.94582 15.26198 33586 ft 468 kts 155°
2026-04-25 12:55 44.92629 15.27615 33212 ft 468 kts 155°
2026-04-25 12:55 44.88786 15.30417 32523 ft 469 kts 155°
2026-04-25 12:55 44.85885 15.32548 32004 ft 470 kts 154°
2026-04-25 12:56 44.82978 15.34692 31505 ft 471 kts 154°
2026-04-25 12:56 44.80072 15.36840 31009 ft 472 kts 154°
2026-04-25 12:56 44.77193 15.38969 30531 ft 473 kts 154°
2026-04-25 12:56 44.74269 15.41131 30041 ft 474 kts 154°
2026-04-25 12:57 44.71348 15.43289 29463 ft 472 kts 154°
2026-04-25 12:57 44.68438 15.45435 28901 ft 469 kts 154°
2026-04-25 12:57 44.65554 15.47560 28359 ft 465 kts 154°
2026-04-25 12:57 44.62735 15.49632 27836 ft 461 kts 154°
2026-04-25 12:58 44.59907 15.51707 27305 ft 458 kts 154°
2026-04-25 12:58 44.57084 15.53777 26794 ft 455 kts 154°
2026-04-25 12:58 44.54299 15.55816 26294 ft 448 kts 154°
2026-04-25 12:58 44.51553 15.57823 25795 ft 440 kts 154°
2026-04-25 12:59 44.48856 15.59790 25305 ft 432 kts 154°
2026-04-25 12:59 44.46205 15.61719 24830 ft 425 kts 154°
2026-04-25 12:59 44.43629 15.63592 24356 ft 419 kts 154°
2026-04-25 12:59 44.41059 15.65458 23885 ft 413 kts 154°
2026-04-25 13:00 44.38519 15.67301 23397 ft 407 kts 154°
2026-04-25 13:00 44.37672 15.67915 23209 ft 405 kts 154°
2026-04-25 13:00 44.33545 15.70905 22326 ft 397 kts 154°
2026-04-25 13:00 44.31112 15.72667 21803 ft 392 kts 154°
2026-04-25 13:01 44.30447 15.73149 21659 ft 390 kts 154°
2026-04-25 13:01 44.28049 15.74883 21151 ft 386 kts 154°
2026-04-25 13:01 44.25679 15.76597 20644 ft 381 kts 154°
2026-04-25 13:01 44.23333 15.78293 20150 ft 378 kts 154°
2026-04-25 13:02 44.21002 15.79975 19664 ft 375 kts 154°
2026-04-25 13:02 44.18695 15.81640 19191 ft 372 kts 154°
2026-04-25 13:02 44.16420 15.83279 18726 ft 372 kts 154°
2026-04-25 13:02 44.14127 15.84968 18245 ft 371 kts 152°
2026-04-25 13:03 44.11777 15.86368 17723 ft 365 kts 169°
2026-04-25 13:03 44.11061 15.86546 17566 ft 363 kts 175°
2026-04-25 13:03 44.08569 15.86633 17061 ft 358 kts 183°
2026-04-25 13:03 44.06082 15.86565 16539 ft 356 kts 182°
2026-04-25 13:04 44.03645 15.86575 16047 ft 353 kts 181°
2026-04-25 13:04 44.01195 15.86666 15552 ft 352 kts 179°
2026-04-25 13:04 43.98749 15.86811 15063 ft 350 kts 179°
2026-04-25 13:04 43.96322 15.86986 14589 ft 348 kts 178°
2026-04-25 13:05 43.94716 15.87112 14275 ft 347 kts 178°
2026-04-25 13:05 43.91493 15.87380 13621 ft 344 kts 178°
2026-04-25 13:05 43.89140 15.87581 13104 ft 342 kts 178°
2026-04-25 13:05 43.86771 15.87787 12593 ft 339 kts 177°
2026-04-25 13:06 43.84425 15.87993 12089 ft 336 kts 177°
2026-04-25 13:06 43.82100 15.88195 11591 ft 333 kts 177°
2026-04-25 13:06 43.79792 15.88397 11103 ft 331 kts 177°
2026-04-25 13:06 43.77500 15.88596 10613 ft 329 kts 177°
2026-04-25 13:07 43.75260 15.89026 10143 ft 328 kts 162°
2026-04-25 13:07 43.73308 15.90581 9643 ft 324 kts 137°
2026-04-25 13:07 43.71948 15.93024 9100 ft 319 kts 117°
2026-04-25 13:07 43.70955 15.95769 8507 ft 317 kts 114°
2026-04-25 13:08 43.70029 15.98519 7940 ft 314 kts 114°
2026-04-25 13:08 43.69100 16.01305 7370 ft 327 kts 113°
2026-04-25 13:08 43.68117 16.04166 6823 ft 338 kts 113°
2026-04-25 13:08 43.67105 16.07100 6263 ft 338 kts 114°
2026-04-25 13:09 43.66111 16.10034 5670 ft 335 kts 114°
2026-04-25 13:09 43.65155 16.12940 5103 ft 332 kts 113°
2026-04-25 13:09 43.64210 16.15848 4524 ft 332 kts 113°
2026-04-25 13:09 43.63270 16.18772 3952 ft 332 kts 114°
2026-04-25 13:10 43.62356 16.21700 3439 ft 329 kts 113°
2026-04-25 13:10 43.61485 16.24553 3041 ft 312 kts 114°
2026-04-25 13:10 43.60698 16.27198 2836 ft 288 kts 113°
2026-04-25 13:10 43.59978 16.29651 2760 ft 264 kts 113°
2026-04-25 13:11 43.59330 16.31901 2722 ft 240 kts 112°
2026-04-25 13:11 43.58744 16.33942 2653 ft 220 kts 114°
2026-04-25 13:11 43.58190 16.35804 2578 ft 197 kts 123°
2026-04-25 13:11 43.57229 16.36847 2327 ft 163 kts 176°
2026-04-25 13:12 43.56295 16.36477 2011 ft 141 kts 237°
2026-04-25 13:12 43.56126 16.35126 1536 ft 155 kts 268°
2026-04-25 13:12 43.56016 16.33610 914 ft 163 kts 249°
2026-04-25 13:12 43.55830 16.33147 714 ft 165 kts 233°
2026-04-25 13:13 43.54640 16.31136 167 ft 156 kts 232°
2026-04-25 13:13 43.54024 16.30038 83 ft 118 kts 232°
2026-04-25 13:13 43.53739 16.29516 88 ft 23 kts 231°
2026-04-25 13:13 43.53714 16.29504 88 ft 1 kts 152°
2026-04-25 13:14 43.53711 16.29506 88 ft 0 kts 146°
2026-04-25 13:14 43.53697 16.29530 89 ft 6 kts 120°
2026-04-25 13:14 43.53692 16.29561 89 ft 0 kts 104°
2026-04-25 13:14 43.53689 16.29593 89 ft 10 kts 92°
2026-04-25 13:15 43.53696 16.29680 91 ft 11 kts 55°
2026-04-25 13:15 43.53706 16.29766 87 ft 13 kts 121°
2026-04-25 13:15 43.53692 16.29798 87 ft 0 kts 120°